New York Downtown Manhattan/w, NY

8:28 PM EST on December 06, 2019 (GMT -0500)
New York Downtown Manhattan/w

Weather History for KJRB - August, 2019

Change the Weather History Date:

Wednesday, August 28, 2019

  Actual Average (WUND) Record (WUND)
Temperature  
Mean Temperature 72 °F -  
Max Temperature 75 °F - - (-1)
Min Temperature 69 °F - - (-1)
Cooling Degree Days 7    
Growing Degree Days 22 (Base 50)    
Moisture  
Dew Point 68 °F    
Average Humidity 85    
Maximum Humidity 94    
Minimum Humidity 73    
Precipitation  
Precipitation 0.02 in - - ()
Sea Level Pressure  
Sea Level Pressure 29.90 in    
Wind  
Wind Speed 6 mph ()    
Max Wind Speed 12 mph    
Max Gust Speed 32 mph    
Visibility 9.0 miles    
Events Rain    
Averages and records for this station are not official NWS values.
T = Trace of Precipitation, MM = Missing Value Source: Averaged Metar Reports

Daily Weather History Graph

Daily Weather History Graph

Search for Another Location

Airport or City:

Astronomy

Aug. 28, 2019 Rise Set
Actual Time 6:18 AM EDT 7:34 PM EDT
Civil Twilight 5:50 AM EDT 8:03 PM EDT
Nautical Twilight 5:16 AM EDT 8:37 PM EDT
Astronomical Twilight 4:40 AM EDT 9:12 PM EDT
Moon 3:47 AM EDT (8/28) 6:45 PM EDT (8/28)
Length of Visible Light 14h 12m
Length of Day
13h 16m
Waning Crescent, 5% of the Moon is Illuminated
Aug 28
Waning Crescent
Aug 30
New
Sep 5
First Quarter
Sep 14
Full
Sep 21
Last Quarter

Hourly Weather History & Observations

Time (EDT) Temp. Dew Point Humidity Pressure Visibility Wind Dir Wind Speed Gust Speed Precip Events Conditions
12:56 AM 69.1 °F 64.0 °F 84% 30.01 in 10.0 mi ENE 3.5 mph - N/A   Overcast
1:23 AM 69.8 °F 64.4 °F 83% 30.01 in 10.0 mi NE 6.9 mph - N/A   Scattered Clouds
1:56 AM 70.0 °F 64.0 °F 81% 30.00 in 10.0 mi Calm Calm - N/A   Mostly Cloudy
2:48 AM 69.8 °F 64.4 °F 83% 29.98 in 10.0 mi ENE 6.9 mph - N/A   Scattered Clouds
2:56 AM 70.0 °F 64.9 °F 84% 29.97 in 10.0 mi NE 6.9 mph - N/A   Partly Cloudy
3:56 AM 71.1 °F 66.9 °F 87% 29.97 in 10.0 mi North 3.5 mph - N/A   Mostly Cloudy
4:45 AM 71.6 °F 66.2 °F 83% 29.96 in 10.0 mi ENE 5.8 mph - N/A   Overcast
4:56 AM 71.1 °F 66.9 °F 87% 29.95 in 10.0 mi NE 6.9 mph - N/A   Overcast
5:08 AM 71.6 °F 66.2 °F 83% 29.95 in 10.0 mi NE 5.8 mph - N/A   Mostly Cloudy
5:16 AM 71.6 °F 66.2 °F 83% 29.95 in 10.0 mi NE 4.6 mph - N/A   Overcast
5:56 AM 71.1 °F 66.0 °F 84% 29.96 in 10.0 mi ENE 5.8 mph - N/A   Overcast
6:41 AM 71.6 °F 66.2 °F 83% 29.95 in 10.0 mi NNE 4.6 mph - N/A   Overcast
6:56 AM 71.1 °F 66.9 °F 87% 29.95 in 10.0 mi ENE 6.9 mph - N/A   Overcast
7:11 AM 71.6 °F 66.2 °F 83% 29.95 in 10.0 mi ENE 6.9 mph - N/A   Mostly Cloudy
7:44 AM 71.6 °F 66.2 °F 83% 29.95 in 10.0 mi NE 6.9 mph - N/A   Overcast
7:56 AM 71.1 °F 66.0 °F 84% 29.95 in 10.0 mi Variable 5.8 mph - N/A   Overcast
8:31 AM 71.6 °F 66.2 °F 83% 29.94 in 10.0 mi NE 8.1 mph - N/A   Overcast
8:56 AM 73.0 °F 68.0 °F 84% 29.94 in 10.0 mi NE 8.1 mph - N/A   Overcast
9:56 AM 73.0 °F 66.9 °F 81% 29.92 in 10.0 mi NE 10.4 mph - N/A   Overcast
10:15 AM 73.4 °F 66.2 °F 78% 29.93 in 10.0 mi NE 11.5 mph - N/A   Overcast
10:34 AM 73.4 °F 66.2 °F 78% 29.93 in 10.0 mi ENE 9.2 mph - N/A   Overcast
10:56 AM 73.9 °F 66.9 °F 79% 29.92 in 10.0 mi NE 10.4 mph 19.6 mph N/A   Overcast
11:13 AM 75.2 °F 66.2 °F 73% 29.92 in 10.0 mi NE 9.2 mph - N/A   Overcast
11:56 AM 75.0 °F 66.9 °F 76% 29.91 in 10.0 mi NE 8.1 mph 32.2 mph N/A   Overcast
12:37 PM 75.2 °F 69.8 °F 83% 29.88 in 6.0 mi ENE 8.1 mph - N/A   Haze
12:56 PM 73.0 °F 69.1 °F 87% 29.88 in 2.0 mi NE 8.1 mph - N/A Rain Light Rain
1:02 PM 73.4 °F 69.8 °F 88% 29.88 in 2.0 mi NE 10.4 mph - N/A Rain Light Rain
1:09 PM 73.4 °F 69.8 °F 88% 29.87 in 1.8 mi ENE 9.2 mph - N/A   Mostly Cloudy
1:16 PM 73.4 °F 69.8 °F 88% 29.87 in 1.8 mi ENE 8.1 mph - N/A   Mostly Cloudy
1:23 PM 71.6 °F 69.8 °F 94% 29.87 in 3.0 mi NE 11.5 mph 16.1 mph N/A   Overcast
1:56 PM 72.0 °F 69.1 °F 91% 29.86 in 10.0 mi ENE 11.5 mph - N/A   Overcast
2:37 PM 73.4 °F 69.8 °F 88% 29.84 in 10.0 mi NE 10.4 mph - N/A   Overcast
2:51 PM 73.4 °F 68.0 °F 83% 29.84 in 10.0 mi NE 9.2 mph - N/A   Overcast
2:56 PM 73.0 °F 68.0 °F 84% 29.84 in 10.0 mi NE 11.5 mph - N/A   Overcast
3:56 PM 73.0 °F 69.1 °F 87% 29.83 in 7.0 mi NE 10.4 mph - 0.00 in   Overcast
4:28 PM 73.4 °F 69.8 °F 88% 29.83 in 10.0 mi NE 10.4 mph - N/A   Overcast
4:36 PM 73.4 °F 69.8 °F 88% 29.83 in 9.0 mi ENE 8.1 mph - N/A   Overcast
4:56 PM 73.9 °F 69.1 °F 85% 29.83 in 10.0 mi ENE 5.8 mph - N/A   Overcast
5:56 PM 73.9 °F 69.1 °F 85% 29.82 in 10.0 mi ENE 6.9 mph - N/A   Overcast
6:56 PM 73.0 °F 70.0 °F 90% 29.81 in 10.0 mi Calm Calm - 0.01 in   Scattered Clouds
7:56 PM 73.0 °F 70.0 °F 90% 29.81 in 10.0 mi Calm Calm - 0.00 in   Scattered Clouds
8:08 PM 73.4 °F 69.8 °F 88% 29.81 in 10.0 mi Calm Calm - N/A   Mostly Cloudy
8:16 PM 73.4 °F 69.8 °F 88% 29.81 in 10.0 mi Calm Calm - N/A   Scattered Clouds
8:56 PM 73.0 °F 70.0 °F 90% 29.83 in 10.0 mi SW 4.6 mph - N/A   Mostly Cloudy
9:29 PM 73.4 °F 69.8 °F 88% 29.82 in 10.0 mi West 3.5 mph - N/A   Overcast
9:56 PM 73.0 °F 70.0 °F 90% 29.82 in 10.0 mi Variable 3.5 mph - 0.01 in   Overcast
10:56 PM 73.0 °F 69.1 °F 87% 29.83 in 10.0 mi Calm Calm - 0.00 in   Partly Cloudy
11:56 PM 73.0 °F 69.1 °F 87% 29.83 in 10.0 mi WSW 4.6 mph - N/A   Partly Cloudy